Location: Newark
(12.4436°N, 0.6167°W)
Time: 15:24:13
(UTC+00:00)

Altair - Visible Passes

Search period start: 08 December 2019 00:00
Search period end: 18 December 2019 00:00
Orbit: 1502 x 1682 km, 47.2° (Epoch: 07 December)

Date Brightness Start Highest point End Pass type
(mag) Time Alt. Az. Time Alt. Az. Time Alt. Az.
08 Dec 8.6 04:31:06 13° NNW 04:38:14 34° NE 04:46:29 10° ESE visible
08 Dec 7.5 19:30:10 10° SW 19:40:04 77° NW 19:43:29 46° NNE visible
08 Dec 9.5 21:39:45 10° WNW 21:41:33 13° WNW 21:41:33 13° WNW visible
09 Dec 8.7 04:07:42 18° N 04:13:01 31° NE 04:20:56 10° E visible
09 Dec 7.5 19:04:55 10° SW 19:14:53 84° NW 19:20:11 32° NE visible
09 Dec 9.2 21:13:49 10° W 21:18:14 18° NW 21:18:14 18° NW visible
10 Dec 8.7 03:44:19 22° N 03:47:46 28° NE 03:55:20 10° E visible
10 Dec 7.6 05:43:32 10° NW 05:52:38 68° SW 06:02:01 10° SSE visible
10 Dec 7.5 18:39:43 10° SW 18:49:43 88° SE 18:56:52 21° NE visible
10 Dec 9.0 20:47:58 10° W 20:54:55 22° NW 20:54:55 22° NW visible
11 Dec 8.8 03:20:58 24° NNE 03:22:31 25° NE 03:29:41 10° E visible
11 Dec 7.5 05:19:01 13° NW 05:27:29 75° SW 05:36:56 10° SE visible
11 Dec 7.6 18:14:32 10° SW 18:24:32 80° SE 18:33:31 13° NE visible
11 Dec 8.8 20:22:11 10° W 20:29:42 25° NW 20:31:35 23° NNW visible
12 Dec 8.9 02:57:38 22° NE 02:57:38 22° NE 03:03:59 10° E visible
12 Dec 7.4 04:55:42 22° NW 05:02:21 83° SW 05:11:48 10° SE visible
12 Dec 7.7 17:49:24 10° SSW 17:59:23 72° SE 18:08:59 10° NE visible
12 Dec 8.8 19:56:28 10° W 20:04:25 27° NW 20:08:12 22° N visible
13 Dec 9.2 02:34:20 18° ENE 02:34:20 18° ENE 02:38:13 10° E visible
13 Dec 7.4 04:32:24 33° NW 04:37:13 88° NE 04:46:38 10° SE visible
13 Dec 8.8 19:30:49 10° W 19:39:08 31° NW 19:44:47 18° N visible
14 Dec 9.5 02:11:02 13° ENE 02:11:02 13° ENE 02:12:21 10° ENE visible
14 Dec 7.4 04:09:06 49° NNW 04:12:05 80° NE 04:21:26 10° SE visible
14 Dec 8.7 19:05:13 10° WSW 19:13:52 34° NW 19:21:20 13° NNE visible
15 Dec 7.4 03:45:48 66° N 03:46:56 72° NE 03:56:13 10° SE visible
15 Dec 8.6 05:44:30 10° W 05:51:14 23° SW 05:58:08 10° S visible
15 Dec 8.6 18:39:40 10° WSW 18:48:38 38° NW 18:57:21 10° NNE visible
16 Dec 7.6 03:22:29 63° ENE 03:22:29 63° ENE 03:30:58 10° SE visible
16 Dec 8.5 05:20:34 15° W 05:26:06 26° SW 05:33:28 10° S visible
16 Dec 8.5 18:14:09 10° WSW 18:23:23 42° NW 18:32:22 10° NNE visible
17 Dec 8.1 02:59:11 45° E 02:59:11 45° E 03:05:41 10° SE visible
17 Dec 8.3 04:57:14 23° W 05:00:58 30° SW 05:08:43 10° S visible
17 Dec 8.4 17:48:42 10° WSW 17:58:09 47° NW 18:07:21 10° NNE visible
17 Dec 9.5 20:04:00 10° NW 20:04:48 10° NNW 20:05:35 10° NNW visible
